Regional Weather Roundup
Issued by NWS

Home | Current Version | Previous Version | Graphics & Text | Print | Product List | Glossary On
Versions: 1 2 3 4 5 6 7 8 9 10 11 12 13 14 15 16 17 18 19 20 21 22 23 24 25 26 27 28 29 30 31 32 33 34 35 36 37 38 39 40 41 42 43 44 45 46 47 48 49 50
000
ASUS45 KTFX 211610
RWRMT
MONTANA REGIONAL WEATHER ROUNDUP
NATIONAL WEATHER SERVICE GREAT FALLS MT
1000 AM MDT SAT OCT 21 2017

NOTE: "FAIR" INDICATES FEW OR NO CLOUDS BELOW 12000 FEET WITH NO
SIGNIFICANT WEATHER AND/OR OBSTRUCTIONS TO VISIBILITY.

MTZ001>007-043-211700-
WEST OF THE DIVIDE

CITY           SKY/WX    TMP DP  RH WIND       PRES   REMARKS
KALISPELL      MOSUNNY   43  31  62 S8        29.96R
MISSOULA       PTSUNNY   40  32  73 CALM      30.02R
BUTTE          CLOUDY    32  22  66 SE6       30.00R WCI  26
MULLAN PASS    CLOUDY    26  23  88 VRB6      29.92S WCI  19
ANACONDA         N/A     37  21  52 W7        29.99R
DEER LODGE       N/A     39  27  60 SE3       30.00S
EUREKA           N/A     43  28  56 MISG      29.93S
LIBBY            N/A     41  34  75 S5        29.96R
PLAINS           N/A     40  36  86 CALM      30.01R
THOMPSON FALLS   N/A     38  37  96 CALM      30.05R
$$

MTZ008-052>055-211700-
SOUTHWEST MONTANA

CITY           SKY/WX    TMP DP  RH WIND       PRES   REMARKS
BOZEMAN        CLOUDY    41  25  53 W7        29.99R
DILLON         CLOUDY    37  22  54 SW12      30.02R WCI  29
W YELLOWSTONE  CLOUDY    27  25  93 SW10G18   30.04R WCI  17
ENNIS          CLOUDY    36  21  55 S10       30.06R WCI  28
THREE FORKS      N/A     44  19  37 W6        29.98R
TWIN BRIDGES     N/A     38  20  48 CALM      30.00R
$$

MTZ009-010-012-014-046-048-049-054-211700-
EAST SLOPES AND CENTRAL MONTANA

CITY           SKY/WX    TMP DP  RH WIND       PRES   REMARKS
CUT BANK       SUNNY     43  25  49 W25G32    29.81R
GREAT FALLS    SUNNY     43  25  49 SW18G25   29.86R
MALMSTROM AFB  SUNNY     43  26  49 SW23      29.87R
HELENA         MOSUNNY   42  27  55 W15G22    29.95S
BOWMANS CRNR     N/A     41  20  43 W14G21    29.86R
CHOTEAU          N/A     45  19  36 SW7       29.84S
FAIRFIELD        N/A     44  19  37 SW21      29.84R
POWER            N/A     40  26  57 SW13      29.84R
RAYNESFORD       N/A     42  22  44 SW23G30   29.87R
ULM              N/A     44  24  45 SW18G28   29.89R
$$

MTZ011-013-016-021-045-047-050-051-211700-
NORTH CENTRAL MONTANA

CITY           SKY/WX    TMP DP  RH WIND       PRES   REMARKS
HAVRE          SUNNY     43  33  68 W20G25    29.78R
LEWISTOWN      SUNNY     43  22  43 W22       29.84R
N BAR RANCH      N/A     43  18  36 W12G23    29.86R
CHINOOK          N/A     43  32  65 W17       29.76R
DENTON           N/A     44  23  43 W23       29.80R
GEYSER           N/A     43  21  42 W28G35    29.83S
GRASS RANGE      N/A     39  24  54 W13       29.80R WCI  31
JUDITH GAP       N/A     42  18  38 W24G37    29.85R
WINIFRED         N/A     44  24  44 NE6       29.81R VSB 1/2
$$

MTZ017>020-022>027-061-062-211700-
NORTHEAST MONTANA

CITY           SKY/WX    TMP DP  RH WIND       PRES   REMARKS
GLASGOW        CLOUDY    46  38  73 W23G33    29.69R
JORDAN           N/A     49  28  44 W25G33    29.75R
SIDNEY         CLOUDY    47  38  71 W26G33    29.62R
WOLF POINT     CLOUDY    47  38  71 W23G33    29.66R
MALTA          SUNNY     45  39  81 W20G28    29.74R
PLENTYWOOD       N/A     43  36  75 W29G35    29.55R
POPLAR           N/A     46  37  71 W25G35    29.63R
SCOBEY           N/A     42  33  70 W25       29.60R
$$

MTZ028>42-056>058-211700-
SOUTHCENTRAL AND SOUTHEAST MONTANA

CITY           SKY/WX    TMP DP  RH WIND       PRES   REMARKS
BAKER          CLOUDY    46  32  58 W31G40    29.74R
BILLINGS       MOSUNNY   49  21  33 W20G30    29.89R
LIVINGSTON     CLOUDY    41  23  48 W17       29.95R
MILES CITY     CLOUDY    49  30  48 W24G32    29.77R
BIG TIMBER     SUNNY     43  19  39 W33G44    29.92R
EKALAKA          N/A     42  28  58 W21       29.77R
FORSYTH          N/A     48  23  37 W20G26    29.81R
HARLOWTON        N/A     42  22  44 W26G32    29.88R
LAUREL           N/A     50  18  27 W20G30    29.90R
$$

REGIONAL REPORTS...DAKOTAS

CITY           SKY/WX    TMP DP  RH WIND       PRES   REMARKS
WILLISTON      CLOUDY    46  38  73 W18G26    29.57
MINOT          CLOUDY    50  39  66 SW23G31   29.49R
DICKINSON      CLOUDY    46  35  65 W33G46    29.60R
BEACH          CLOUDY    45  34  65 W30G39    29.69S
CROSBY         CLOUDY    48  39  71 W23G33    29.49S
TIOGA          CLOUDY    46  41  81 W26G33    29.52R
WATFORD CITY   CLOUDY    45  37  76 W21G31    29.58R
BISMARCK       CLOUDY    49  42  77 NW13      29.57S
GRAND FORKS    PTSUNNY   62  41  46 SW13      29.44R
FARGO          CLOUDY    60  41  49 W13       29.49R
BUFFALO SD       N/A     49  29  46 W40G53    29.68R
RAPID CITY     CLOUDY    49  23  36 NW20      29.81R
$$

REGIONAL REPORTS...WYOMING/IDAHO/WASHINGTON

CITY           SKY/WX    TMP DP  RH WIND       PRES   REMARKS
GILLETTE       SUNNY     46  16  30 NW28G35   29.86R
SHERIDAN       SUNNY     49  19  30 NW6       29.89R
BUFFALO WY     MOSUNNY   46  13  26 NW7       29.90R
CODY           SUNNY     41  20  43 SW16G29   29.96R
YELLOWSTONE LA   N/A     24  20  84 VRB3      30.04R
IDAHO FALLS    CLOUDY    33  29  85 SW14      30.14R WCI  23
SALMON         SUNNY     37  33  85 CALM      30.07S
BOISE          CLOUDY    39  33  79 SE13      30.15R WCI  31
SPOKANE        CLOUDY    36  32  85 SE10      29.97R WCI  28
$$

REGIONAL REPORTS...ALBERTA

CITY           SKY/WX    TMP DP  RH WIND       PRES   REMARKS
EDMONTON       SUNNY     36  32  87 W7        29.67R WCI  30
CALGARY        MOSUNNY   36  28  75 S5        29.69S
LETHBRIDGE     MOSUNNY   45  28  53 W20G26    29.76S
MEDICINE HAT   MOSUNNY   41  36  81 S9        29.73R
$$

REGIONAL REPORTS...SASKATCHEWAN

CITY           SKY/WX    TMP DP  RH WIND       PRES   REMARKS
SWIFT CURRENT  LGT RAIN  39  37  93 W20G26    29.61R WCI  30
REGINA         CLOUDY    45  39  81 W22G30    29.45R
SASKATOON      LGT RAIN  39  37  93 NW17G24   29.49R WCI  30
$$



USA.gov is the U.S. government's official web portal to all federal, state and local government web resources and services.